Wind_Speed
9 10 10 10 10 11 12 12 12 13 14 14 14 15 16 16 17 17 17 18 18 19 19 19 19 19 19 19 20 21 21 22 22 23 22 23 23 23
10 11 11 11 12 12 12 12 13 14 14 14 15 15 15 16 17 17 18 18 18 18 19 20 20 20 20 21 22 22 22 23 24 23 23 23 23 23
11 12 12 12 13 13 14 14 15 15 16 16 16 16 16 16 16 17 18 18 19 19 20 20 21 22 22 22 22 23 24 24 24 24 24 24 25 25
13 13 13 13 14 14 15 16 16 17 17 17 17 17 17 18 18 18 19 19 19 20 20 20 21 22 21 22 23 23 23 24 25 26 27 27 27 27
14 14 14 15 16 16 17 17 18 19 19 19 18 18 19 19 20 20 20 20 20 20 20 21 22 22 22 23 24 24 25 25 25 26 27 28 29 29
16 16 16 17 17 18 19 20 20 21 21 21 20 20 20 21 21 21 21 21 22 22 22 22 22 23 24 24 24 24 25 25 27 28 29 29 30 30
18 18 18 19 20 20 21 21 22 22 23 23 23 22 22 22 22 22 22 23 23 24 24 24 24 25 25 25 25 26 26 27 27 28 29 30 30 30
20 20 20 21 22 22 23 23 24 24 24 25 25 24 24 24 24 24 24 24 24 25 25 25 25 26 27 27 28 28 28 29 29 29 30 30 30 31
22 22 22 22 23 24 24 24 25 25 25 25 25 25 25 25 25 25 26 26 26 26 26 27 27 28 29 29 30 31 30 31 31 32 32 32 31 32
24 24 23 24 25 25 25 26 26 26 27 27 27 26 26 26 27 27 27 28 28 28 29 29 29 30 30 31 31 31 32 32 32 32 32 32 32 32
25 24 25 25 26 26 26 26 27 27 28 28 27 28 28 28 29 30 30 30 30 30 31 31 31 32 32 32 32 33 33 33 34 33 33 33 33 33
26 26 26 27 27 27 27 28 28 28 28 29 29 29 29 30 30 31 31 32 32 32 33 33 33 33 33 34 34 34 35 35 35 35 35 35 35 35
28 28 29 29 28 28 29 29 29 29 29 29 30 31 31 32 32 32 32 33 33 34 35 35 35 35 35 35 35 35 35 35 35 36 36 36 36 36
29 29 30 30 30 30 30 30 30 31 31 31 31 32 32 32 33 33 33 34 35 36 36 36 36 36 36 36 36 36 37 37 37 37 37 37 37 37
30 31 31 31 31 31 32 32 32 32 32 32 32 32 33 33 34 34 35 35 35 36 36 36 36 36 36 36 36 36 36 36 36 36 36 36 37 37
31 31 32 31 32 33 33 33 34 34 34 33 33 33 34 35 35 35 35 36 37 37 38 38 37 37 37 36 36 36 36 37 37 37 37 37 37 37
33 32 33 33 34 33 34 34 35 35 35 35 35 35 35 36 36 36 36 37 37 37 37 38 37 37 36 37 37 37 37 38 38 39 38 38 39 39
34 34 34 34 34 35 34 34 34 34 35 35 36 36 37 37 38 38 38 38 38 37 37 37 37 38 38 38 39 39 39 39 39 39 39 39 38 39
36 36 36 36 35 35 35 35 34 35 36 37 38 38 38 39 39 38 38 37 37 37 37 37 37 38 39 40 40 40 40 39 39 39 39 38 38 38
37 36 36 36 36 36 36 36 36 37 37 38 38 39 39 39 39 38 37 37 37 37 37 37 38 39 40 40 39 39 40 40 39 39 39 38 37 38
38 38 38 38 37 37 36 37 37 38 38 38 38 38 39 38 38 38 38 37 37 37 37 38 38 39 40 40 39 39 38 38 38 38 38 38 38 37
38 38 38 38 38 37 37 37 37 38 38 38 38 38 38 38 38 37 37 37 37 37 37 38 37 38 38 38 37 38 37 37 37 37 36 36 36 36
36 36 36 37 36 36 36 36 37 36 36 36 36 36 36 36 36 36 36 36 36 36 36 37 37 37 36 36 36 36 35 35 35 36 36 36 36 36
Wind_Direction
282 281 279 280 277 276 273 273 276 279 279 278 278 279 278 280 281 283 283 282 279 277 274 274 274 274 274 273 273 274 273 271 271 269 271 273 273 273
284 290 289 284 282 280 278 278 281 283 283 281 279 279 280 280 282 282 283 281 281 282 279 275 274 274 275 276 276 274 273 273 272 271 272 273 273 274
289 292 293 290 284 283 283 282 283 283 283 285 283 280 279 280 282 284 284 282 282 283 281 278 277 278 278 277 277 276 275 274 272 271 272 272 272 272
294 293 292 293 291 288 287 285 285 284 286 288 286 282 281 280 282 283 284 283 281 282 283 281 280 279 278 279 281 279 279 277 275 274 273 273 274 274
295 296 293 292 293 291 290 290 289 287 287 289 289 285 283 284 285 284 284 283 284 284 283 281 280 281 281 281 281 280 280 279 279 280 278 275 275 276
292 291 291 292 293 292 289 288 288 287 286 286 286 286 283 282 283 284 284 284 284 283 284 283 282 281 282 282 282 282 281 281 280 280 280 278 277 277
290 289 289 290 292 292 290 288 288 287 285 284 284 284 282 281 281 282 283 284 283 283 283 283 282 281 283 283 283 283 282 282 282 282 281 280 279 279
292 292 291 289 291 291 289 288 288 288 286 284 283 282 283 282 282 282 282 284 284 283 283 283 283 283 284 284 284 284 284 285 286 286 285 284 283 282
288 290 293 291 292 291 288 288 288 288 286 283 281 280 281 281 280 281 283 283 284 285 284 284 284 284 284 284 284 284 284 285 286 286 286 285 284 282
286 286 288 288 289 288 286 287 287 286 285 283 281 280 280 281 281 281 282 283 284 284 285 286 285 285 285 285 284 284 284 285 285 285 285 284 284 283
287 285 287 288 288 287 285 286 287 285 284 283 280 280 280 280 282 282 282 283 283 284 285 287 286 286 286 285 284 283 284 284 284 284 284 283 283 282
284 284 287 288 287 286 285 284 285 285 284 282 281 281 281 281 281 283 284 283 283 285 286 287 287 286 285 285 284 284 284 284 284 284 283 283 283 283
282 282 284 285 284 283 283 284 284 284 284 283 283 282 281 282 282 283 283 284 284 285 285 286 286 285 285 285 285 285 285 285 285 284 283 283 282 282
280 279 280 282 282 281 282 283 283 283 283 283 283 282 281 281 282 282 283 284 284 285 285 284 284 284 285 285 285 284 285 285 285 284 283 283 282 282
282 280 279 279 280 279 279 281 282 283 283 284 283 283 282 282 284 284 284 284 285 285 285 284 283 283 283 284 284 284 285 285 285 285 284 283 282 282
283 281 280 280 279 279 279 279 281 281 281 283 284 285 285 284 284 285 286 286 286 285 284 283 282 282 283 283 283 284 284 285 286 286 285 285 284 283
281 281 281 280 279 279 279 279 280 280 279 281 282 283 284 285 285 286 287 288 287 286 286 285 284 284 283 284 284 283 284 285 285 284 285 285 285 284
278 279 279 280 280 280 279 279 279 279 279 279 281 282 283 284 284 286 288 288 287 286 285 284 284 283 283 284 284 284 284 284 284 284 284 284 284 284
278 278 278 279 281 281 280 280 279 279 279 280 280 282 283 283 284 285 285 286 286 284 284 283 283 284 284 285 285 284 284 284 285 285 284 283 283 283
278 278 278 280 281 280 280 280 280 280 281 282 282 283 283 284 284 285 284 284 285 285 284 283 284 285 285 284 283 283 284 285 284 284 284 283 283 283
277 278 279 280 280 280 280 280 281 282 281 281 282 283 284 283 283 284 283 282 284 285 284 284 284 285 285 283 282 282 283 283 284 284 284 285 284 283
277 278 278 279 279 279 280 280 281 281 281 281 281 282 283 283 282 282 283 282 282 284 284 284 284 285 284 282 283 283 283 283 285 286 286 286 286 286
277 278 278 279 279 280 279 279 279 280 280 281 281 282 283 283 283 282 282 283 284 284 285 286 286 286 285 284 285 284 284 284 285 286 286 287 287 286
Height
5869 5868 5867 5866 5866 5865 5864 5864 5863 5862 5861 5860 5859 5858 5857 5856 5855 5854 5853 5852 5851 5850 5849 5849 5848 5847 5846 5845 5844 5843 5842 5842 5841 5840 5839 5839 5838 5837
5866 5865 5864 5863 5863 5862 5861 5860 5859 5858 5857 5856 5855 5854 5853 5852 5851 5849 5848 5848 5847 5845 5844 5843 5842 5842 5841 5840 5839 5838 5837 5836 5835 5834 5833 5833 5832 5831
5862 5861 5860 5859 5858 5858 5857 5856 5855 5854 5853 5852 5850 5849 5848 5847 5846 5845 5844 5842 5841 5840 5839 5838 5837 5836 5835 5834 5833 5832 5831 5830 5829 5828 5827 5826 5826 5825
5858 5857 5856 5855 5854 5853 5853 5852 5851 5850 5849 5847 5846 5845 5843 5842 5841 5840 5839 5837 5836 5835 5833 5832 5831 5830 5829 5828 5826 5825 5824 5823 5822 5821 5820 5820 5819 5818
5853 5852 5851 5851 5850 5849 5848 5847 5846 5845 5843 5842 5841 5840 5838 5837 5836 5834 5833 5832 5830 5829 5827 5826 5825 5824 5822 5821 5820 5819 5817 5816 5815 5814 5813 5811 5811 5809
5849 5848 5847 5846 5845 5844 5843 5841 5840 5839 5838 5837 5835 5834 5833 5831 5830 5829 5827 5826 5824 5823 5821 5820 5819 5817 5816 5815 5813 5812 5810 5809 5807 5806 5805 5803 5802 5801
5843 5842 5841 5840 5839 5838 5837 5835 5834 5833 5831 5830 5829 5827 5826 5825 5824 5823 5821 5820 5818 5816 5815 5813 5812 5810 5809 5808 5806 5804 5803 5801 5800 5798 5797 5795 5794 5792
5838 5836 5835 5834 5833 5832 5830 5829 5827 5826 5824 5823 5822 5821 5820 5818 5817 5816 5814 5813 5811 5810 5808 5807 5805 5803 5802 5800 5798 5797 5795 5793 5792 5790 5788 5786 5785 5783
5831 5830 5828 5827 5826 5824 5823 5821 5820 5818 5817 5815 5814 5813 5812 5811 5810 5808 5807 5805 5804 5803 5801 5799 5797 5795 5793 5791 5790 5788 5787 5785 5783 5781 5779 5777 5776 5774
5824 5823 5821 5820 5818 5816 5815 5813 5812 5810 5809 5807 5806 5805 5804 5803 5802 5801 5799 5797 5796 5794 5792 5791 5788 5786 5785 5783 5781 5779 5777 5776 5774 5772 5770 5768 5766 5764
5816 5815 5813 5812 5810 5808 5807 5805 5804 5802 5800 5799 5798 5796 5795 5794 5793 5791 5790 5789 5787 5785 5783 5782 5779 5777 5775 5773 5771 5769 5768 5766 5764 5762 5760 5758 5756 5754
5808 5806 5805 5803 5802 5800 5798 5797 5795 5793 5792 5790 5789 5787 5786 5784 5783 5782 5780 5779 5777 5776 5774 5772 5770 5768 5766 5764 5761 5759 5757 5756 5754 5751 5749 5747 5745 5743
5799 5798 5796 5795 5793 5791 5790 5788 5786 5784 5783 5781 5780 5778 5776 5775 5774 5772 5771 5769 5768 5766 5764 5762 5760 5757 5755 5753 5751 5749 5747 5745 5743 5741 5739 5736 5734 5732
5790 5789 5787 5785 5784 5782 5781 5779 5777 5776 5774 5772 5770 5769 5767 5765 5764 5762 5761 5759 5757 5755 5753 5751 5749 5746 5744 5742 5740 5738 5736 5734 5732 5729 5727 5725 5723 5721
5780 5778 5777 5775 5774 5772 5771 5769 5768 5766 5764 5763 5761 5759 5757 5755 5753 5752 5750 5748 5746 5744 5742 5739 5738 5735 5733 5731 5729 5727 5725 5722 5720 5718 5716 5713 5711 5709
5770 5768 5766 5765 5763 5762 5761 5759 5757 5756 5754 5753 5751 5749 5747 5745 5743 5741 5739 5737 5735 5733 5730 5728 5726 5724 5722 5720 5718 5716 5714 5712 5709 5707 5705 5703 5700 5698
5759 5758 5757 5755 5753 5751 5750 5748 5747 5745 5744 5743 5741 5739 5737 5735 5732 5730 5728 5725 5723 5721 5718 5716 5714 5712 5710 5709 5707 5705 5702 5700 5698 5695 5693 5691 5689 5686
5748 5746 5745 5743 5741 5740 5739 5737 5736 5734 5733 5731 5729 5728 5726 5723 5721 5719 5716 5714 5711 5709 5707 5705 5702 5700 5698 5697 5695 5693 5690 5688 5686 5683 5681 5679 5677 5674
5736 5734 5733 5732 5731 5729 5727 5726 5724 5723 5721 5719 5717 5716 5714 5711 5709 5707 5705 5702 5699 5697 5695 5693 5691 5689 5687 5685 5683 5680 5678 5676 5674 5672 5669 5667 5665 5663
5723 5722 5721 5720 5719 5717 5716 5714 5713 5711 5709 5707 5705 5703 5701 5699 5697 5695 5692 5690 5688 5685 5683 5681 5679 5677 5675 5673 5671 5668 5666 5664 5662 5659 5657 5655 5653 5651
5712 5710 5709 5708 5706 5705 5703 5702 5700 5698 5697 5695 5693 5691 5689 5687 5685 5682 5680 5678 5676 5674 5671 5669 5667 5665 5662 5660 5658 5656 5653 5651 5649 5647 5645 5643 5641 5639
5699 5698 5697 5696 5694 5692 5691 5689 5688 5686 5684 5682 5681 5678 5676 5674 5673 5670 5668 5666 5664 5662 5659 5657 5655 5652 5650 5648 5646 5643 5641 5639 5637 5634 5632 5631 5629 5627
5687 5686 5684 5683 5682 5680 5679 5677 5675 5674 5672 5670 5669 5667 5665 5663 5661 5659 5657 5654 5652 5650 5647 5645 5643 5640 5638 5636 5634 5632 5630 5627 5625 5623 5621 5618 5617 5614